DELTA 1 R/B

Satellite information

Favourite Embed

Satellite Type and Status

ROCKET BODYIN ORBIT

Key statistics

Satellite DELTA 1 R/B at a glance.

Uptime

18372

Days in orbit

Revolutions

≈ 14.1

Per day

Orbit

SSO

Sun Synchronous Orbit

Inclination

97.8

Latest

Satellite identification and parameters

Extended collection of information and parameters for DELTA 1 R/B.

Object identification

Identified? True

Debris? False

Object name: DELTA 1 R/B

International designator: 1975-004B

Object number (NORAD): 7616

Object ID (CCSDS): 7616

Country: UNITED STATES OF AMERICA (US)

Current information (Y/N): Y

RCS size: LARGE

Orbital parameters

Period: 102.421 minutes

Inclination: 97.7689 deg

SMA: 7251.384 km

Apoapsis: 1007.19 km

Periapsis: 739.308 km

RAAN: 237.3969 deg

Eccentricy: 0.0184711

Argument of periapsis: 233.4851 deg

Mean anomaly: 124.9187 deg

Mean motion: 14.05955025 rev/day

Mean motion (dot): -0.00000056 rev/day2

B* drag term: -0.00001072 1/REarth

Two-line elements (TLE)

Creation date: May 11, 2025, 2:40 a.m.

Reference frame: TEME

Reference center: EARTH

Epoch: May 10, 2025, 6:05 p.m. UTC

TLE line 0: 0 DELTA 1 R/B

TLE line 1: 1 07616U 75004B 25130.75383764 -.00000056 00000-0 -10720-4 0 9997

TLE line 2: 2 07616 97.7689 237.3969 0184711 233.4851 124.9187 14.05955025563849

Live tracking on map

Real-time ground track for satellite DELTA 1 R/B.

In-orbit conjunctions

A list of the most updated potential collisions computed for object DELTA 1 R/B.

Target Orbit TCA Probability of collision Miss distance Type
DELTA 1 DEB SSO 2025-05-08 00:47:22 0.0006829788 272.0 (m) DEBRIS
COSMOS 2251 DEB LEO 2025-03-15 01:07:00 0.0001811484 105.0 (m) DEBRIS
CZ-6A DEB LEO 2025-01-21 04:21:35 0.0003209765 699.0 (m) DEBRIS
NOAA 16 DEB SSO 2024-11-13 18:38:42 0.0003489296 282.0 (m) DEBRIS
CZ-4 DEB SSO 2024-10-03 09:20:05 0.0001042384 268.0 (m) DEBRIS

Associated space launch

Earth observation satellite

DELTA 1 R/B was lifted into orbit during the mission ‘Delta 2910 | Landsat 2’, on board a Delta 2910 space rocket.

The launch took place on Jan. 22, 1975, 5:55 p.m. from Space Launch Complex 2W.

For more information about the launch, click the button.

Launch to space Delta 2910 | Landsat 2
Delta 2910 | Landsat 2

Agency: N/A

Status: Launch Successful

Launch date: Jan. 22, 1975, 5:55 p.m. UTC

Rocket: Delta 2910

Launch pad: Space Launch Complex 2W

Location: Vandenberg SFB, CA, USA

...

Latest news about this satellite

There are no fresh news available about this satellite. Check back as we update our databases every day.


Newsletter sign-up

Weekly statistics, charts and insights to help you stay on top of the space industry.